Theta_e
307 307 307 307 307 305 303 300 293 305 305 292 292 285 290 294 292 295 293 292 289 287 288 286 286 286 290 295 293 287 291 287 284 286 293 296 294 291 290 285 286 289 288 290
307 307 307 307 307 306 300 295 298 306 303 284 286 291 290 292 292 292 291 289 292 290 288 284 288 289 294 295 293 291 290 284 280 283 288 293 292 295 293 291 292 288 287 290
306 306 307 307 307 307 302 297 291 296 298 295 290 288 289 289 295 291 292 290 291 289 287 289 287 289 293 295 294 297 294 286 283 279 286 290 288 291 294 292 288 290 292 294
306 306 307 307 307 306 303 298 292 294 286 289 291 291 290 289 288 293 293 290 290 288 285 286 285 289 291 294 296 294 291 285 287 288 291 290 289 289 290 290 293 290 294 296
306 306 306 307 307 306 301 295 293 295 292 293 291 292 289 289 291 291 290 288 291 291 286 287 285 288 288 288 292 292 292 285 288 286 291 290 288 290 290 291 294 295 296 297
306 306 306 307 307 306 300 300 301 297 293 291 289 289 291 291 292 293 294 293 290 290 292 295 293 294 293 292 290 288 289 285 286 283 289 288 284 287 290 293 296 297 294 301
307 306 306 307 307 307 303 300 299 294 288 291 291 292 293 291 292 291 294 294 292 296 299 299 297 296 295 294 293 293 287 286 288 285 287 277 288 296 297 295 301 303 306 307
307 307 306 306 306 307 302 302 300 296 289 292 293 293 292 294 294 292 293 295 297 299 297 290 286 288 289 292 294 294 293 290 285 283 284 288 294 297 297 298 300 307 306 307
307 307 307 307 306 306 303 301 304 300 293 291 296 293 294 290 291 291 293 297 299 297 293 287 285 280 286 285 290 296 294 293 288 287 281 284 292 297 300 302 295 308 309 308
307 307 308 307 306 306 303 300 302 301 293 297 297 292 292 296 294 290 292 293 293 295 287 282 281 283 290 284 284 288 288 288 285 285 283 287 295 296 299 293 296 308 309 308
307 307 307 307 307 305 303 299 302 298 296 297 299 300 295 295 295 290 293 290 291 289 283 285 285 284 287 286 289 287 285 285 286 288 284 281 295 296 297 303 308 307 306 307
305 306 307 307 308 307 305 297 303 309 300 298 303 303 303 302 301 296 294 292 292 293 288 286 286 287 288 287 282 292 285 288 287 289 287 295 297 298 305 308 305 305 306 306
306 305 307 308 308 307 305 299 300 300 298 297 298 298 306 308 306 306 294 295 296 295 297 291 290 286 291 284 286 289 291 296 291 292 295 296 299 302 305 306 305 306 306 306
305 306 307 307 307 306 305 298 301 302 299 291 294 305 302 309 308 305 302 298 297 297 296 292 291 288 295 289 290 291 292 294 292 291 295 298 299 301 302 305 306 306 307 307
304 305 307 307 306 306 304 303 303 304 299 292 294 300 305 307 307 304 303 300 297 293 293 292 291 295 295 294 294 292 294 292 290 290 297 297 298 302 304 303 305 304 305 306
306 306 307 307 306 306 302 300 305 306 306 296 290 300 301 306 307 305 301 301 298 296 295 294 295 301 295 288 289 296 297 299 299 295 300 301 302 304 306 304 305 305 307 307
305 306 306 306 306 304 300 300 305 309 308 297 291 293 303 307 305 304 303 303 300 299 296 295 295 296 298 293 289 297 298 300 300 302 302 299 302 300 305 305 306 307 308 308
304 305 305 305 305 305 302 307 307 310 303 300 291 292 297 306 299 297 303 299 301 299 297 297 294 296 295 289 295 299 300 301 301 302 302 302 302 303 304 305 306 304 304 305
304 304 305 305 303 304 306 311 309 308 303 294 294 289 289 304 299 300 300 300 293 300 295 295 296 292 287 294 296 297 298 298 299 300 300 301 301 301 302 302 303 302 302 303
304 304 303 301 303 311 310 303 299 298 298 298 292 297 292 300 298 296 296 297 293 290 294 297 291 290 297 299 301 299 300 299 299 295 296 299 299 299 300 301 302 302 302 302
303 300 298 302 309 304 302 296 294 295 293 297 296 296 294 303 296 294 296 291 293 287 293 291 289 288 296 299 300 301 300 298 300 300 302 301 300 300 300 301 302 302 303 302
298 297 300 301 299 297 293 292 296 295 293 299 297 299 300 300 302 294 295 289 291 287 297 291 287 294 298 300 300 301 301 301 302 301 301 301 302 301 301 301 301 302 303 303
302 297 294 293 294 288 289 286 292 294 298 301 301 297 300 300 300 295 292 286 287 296 288 289 293 298 299 301 301 302 302 301 301 303 301 302 301 303 302 301 303 302 303 303
296 294 287 289 288 291 293 294 296 301 301 299 298 298 296 299 294 295 289 292 292 286 283 286 294 299 302 302 302 301 300 300 300 302 303 302 301 300 300 301 303 302 301 302
294 295 287 291 296 298 300 301 300 302 302 299 297 297 298 295 293 294 291 288 284 284 284 292 298 300 301 301 302 302 302 302 300 300 300 301 303 302 301 301 300 301 301 301
295 295 292 296 296 296 297 299 300 302 301 302 299 295 292 292 292 289 287 285 282 285 293 299 300 301 301 302 302 302 303 302 300 301 301 302 303 302 302 301 301 300 300 300
293 292 297 296 295 295 296 298 299 303 301 295 297 291 290 295 289 288 291 286 290 297 299 300 303 302 302 301 304 305 304 303 301 301 302 301 302 303 301 298 300 301 300 300
Wind_Speed
20 21 22 23 23 27 9 5 4 4 2 1 2 3 15 17 12 16 13 12 6 12 17 8 7 6 8 2 2 1 4 5 7 11 13 17 18 21 15 9 18 5 5 11
21 21 22 22 22 18 7 6 5 5 3 1 2 10 13 16 20 11 11 13 16 14 11 8 3 3 4 8 5 0 3 4 6 6 7 12 9 14 17 7 7 20 11 13
20 21 21 21 20 17 5 5 5 5 4 6 9 11 10 15 11 11 15 13 7 4 11 13 11 5 6 9 5 2 5 4 6 9 8 9 11 21 13 16 10 13 13 20
20 20 21 21 22 20 3 3 4 4 5 9 14 14 15 17 16 13 11 8 11 14 11 16 8 11 8 5 9 5 5 4 10 17 21 11 17 19 20 17 15 18 15 8
20 20 20 20 21 25 2 4 4 4 8 11 14 8 7 16 17 13 11 11 18 17 8 10 16 14 9 9 4 10 6 4 9 17 17 2 19 22 20 21 23 15 21 17
20 19 18 18 18 15 4 4 3 4 6 8 8 7 17 18 16 8 19 7 12 15 16 17 15 16 12 14 14 9 8 4 4 6 7 3 9 20 17 14 20 19 17 10
19 18 17 16 15 10 5 5 5 4 8 9 13 19 18 19 18 16 15 12 7 10 18 17 15 16 18 14 15 13 9 7 3 3 4 3 12 8 19 18 10 15 15 11
20 18 17 16 14 12 6 7 4 3 6 11 17 19 18 18 16 13 16 15 16 14 12 5 8 5 5 3 15 14 7 4 4 4 2 9 10 11 12 6 10 18 19 9
18 19 18 16 15 14 5 7 6 4 5 5 17 19 15 14 10 8 12 14 14 8 2 2 4 4 4 4 4 8 6 8 4 2 4 5 6 21 25 16 10 8 10 8
18 19 19 17 15 13 7 6 7 4 5 11 9 11 12 9 6 5 8 14 8 9 6 2 3 3 8 5 7 5 1 3 3 1 3 6 11 26 24 5 4 1 6 5
19 18 18 18 16 14 8 8 8 4 5 14 17 12 15 17 11 5 6 7 7 4 8 4 5 3 4 5 4 7 3 2 1 2 2 3 22 25 7 3 6 5 6 7
20 19 18 18 16 12 9 5 5 2 4 9 17 21 24 19 20 5 0 2 3 3 3 4 4 3 3 5 5 5 2 3 1 4 3 7 15 14 12 8 3 7 7 8
19 21 19 18 17 14 9 6 8 4 4 8 4 8 12 10 10 7 2 2 3 2 3 3 3 3 3 3 3 5 8 9 5 2 9 4 9 14 5 8 10 8 7 8
20 18 19 19 17 16 13 6 5 3 3 4 7 7 14 6 8 10 5 2 2 2 1 3 3 3 2 3 4 3 1 7 3 2 4 5 13 18 18 11 13 13 11 9
22 22 20 19 20 18 10 8 8 8 3 4 8 19 5 7 10 12 7 5 2 2 3 3 4 3 4 2 2 3 2 2 3 2 2 3 4 12 20 15 11 11 9 10
22 24 22 20 18 15 5 3 5 9 5 3 5 6 7 8 9 12 11 8 4 3 3 4 4 7 3 2 1 4 5 5 2 3 4 4 3 7 7 12 8 10 8 10
23 23 21 19 15 5 5 2 2 4 4 2 5 5 4 4 5 2 3 9 4 3 3 3 3 2 3 2 3 4 9 8 10 7 5 10 9 6 10 12 7 9 11 12
26 25 22 19 20 10 5 7 7 4 2 2 4 5 4 6 3 2 3 4 4 4 4 3 2 3 2 3 2 6 6 5 3 6 6 4 8 12 15 15 18 18 16 15
29 27 27 4 3 3 2 7 6 3 2 3 4 3 4 3 4 3 2 3 3 4 3 3 3 0 2 1 5 6 1 2 4 3 2 7 12 12 13 14 15 13 14 14
30 7 4 2 1 10 8 1 2 2 2 3 5 4 6 4 4 2 2 2 2 2 4 2 2 1 3 5 7 7 5 1 6 3 7 9 8 8 10 10 8 7 7 9
5 5 4 6 4 3 4 4 4 5 5 6 6 8 6 1 3 3 1 1 3 2 3 1 1 2 2 4 4 3 3 2 6 5 9 7 9 7 8 8 9 8 8 9
8 8 7 4 3 3 5 3 5 7 6 6 4 5 5 3 3 3 2 1 3 4 4 1 2 3 5 2 4 4 6 8 8 7 12 9 9 5 4 3 2 2 5 4
2 2 3 2 3 5 6 6 5 4 4 4 4 4 5 2 3 1 2 1 4 5 3 3 3 7 6 6 6 5 6 8 7 7 7 10 6 6 2 5 2 4 7 9
4 4 5 6 6 6 7 8 7 4 5 2 1 4 4 4 3 3 3 5 1 2 2 3 1 3 1 6 5 4 4 2 6 6 7 7 11 9 8 8 7 7 9 7
5 4 6 7 8 9 9 8 9 9 2 2 1 1 4 2 1 2 1 3 2 5 5 1 3 4 6 5 4 6 2 5 4 3 4 6 8 8 8 7 6 8 8 8
5 8 7 8 8 8 8 8 6 6 3 2 2 2 2 4 4 4 5 4 5 5 3 4 6 7 12 5 5 5 8 6 3 4 5 5 5 6 7 7 7 6 6 8
7 6 6 9 11 11 11 10 8 4 3 1 3 3 6 3 4 3 4 6 5 4 4 3 7 8 4 5 7 6 6 7 5 1 4 2 1 5 7 6 6 7 6 6
Wind_Direction
341 339 339 341 346 343 358 317 307 188 160 310 226 306 312 321 324 330 318 346 322 305 315 313 344 334 290 286 302 20 274 295 293 271 273 272 278 281 224 228 222 260 215 261
342 341 339 341 347 2 328 309 264 241 113 304 314 298 325 325 323 311 319 332 344 11 327 330 295 248 299 251 233 341 55 302 303 293 240 243 248 275 223 202 250 228 233 250
342 343 341 340 342 345 329 291 322 354 346 2 322 321 309 313 312 334 339 323 85 313 308 292 316 239 308 207 276 210 110 248 244 278 300 329 303 321 315 233 230 229 229 244
342 344 342 341 339 336 304 247 350 41 316 321 309 320 301 320 329 332 333 305 329 321 319 314 306 315 294 256 224 196 149 253 248 270 284 269 274 285 297 305 266 215 243 218
341 343 344 343 344 334 214 335 339 335 290 302 309 353 321 313 330 323 313 355 319 311 286 308 310 300 278 274 246 170 177 254 279 286 266 227 278 281 280 278 276 245 242 252
337 339 342 344 349 345 320 357 336 289 270 295 323 315 322 318 331 330 322 328 310 302 305 302 253 277 268 255 262 253 188 229 293 266 135 125 281 255 259 260 273 258 229 225
336 335 338 341 342 354 306 292 296 287 292 307 313 322 321 334 329 303 303 312 297 318 315 304 293 274 261 249 248 222 222 197 252 276 201 180 228 264 225 223 309 265 119 81
333 333 333 334 335 332 303 296 280 285 288 301 298 335 327 316 311 320 325 326 326 322 310 323 315 312 349 243 246 211 211 147 252 255 227 323 319 11 333 320 38 14 79 63
330 329 330 332 331 328 303 292 280 268 302 250 322 312 311 313 323 314 308 317 308 300 277 3 313 351 296 326 349 12 192 177 225 228 183 218 37 336 335 312 87 310 13 346
324 325 326 326 329 326 314 280 288 261 256 271 290 307 303 313 301 279 295 339 327 352 338 332 332 329 355 351 340 341 329 131 201 166 341 299 335 329 317 75 145 200 49 316
317 321 321 322 321 324 321 285 277 243 270 284 278 278 299 300 289 305 320 330 21 332 16 332 341 335 4 313 304 331 337 289 163 158 222 265 2 338 41 345 305 36 36 1
318 318 317 316 316 314 311 268 278 339 259 278 299 281 269 252 254 264 89 277 275 341 325 347 321 306 345 310 326 344 352 317 346 11 52 13 331 322 300 284 65 30 36 8
314 316 313 312 311 313 294 281 285 289 262 281 264 274 288 232 216 150 154 199 257 310 37 322 291 300 317 331 330 312 347 347 18 39 34 331 296 292 328 0 53 35 21 14
312 310 310 310 309 310 300 269 269 236 280 272 280 305 312 268 135 138 178 150 171 238 211 244 253 265 231 330 319 312 213 323 27 86 356 295 327 338 339 17 35 19 12 13
310 311 310 313 314 309 295 254 236 234 242 291 302 305 276 176 153 164 164 165 227 267 264 219 245 264 139 24 296 302 119 254 19 44 283 245 276 321 327 350 23 2 7 22
307 309 308 310 312 317 287 258 184 210 197 297 299 308 276 200 180 176 179 187 184 236 244 258 246 215 120 111 288 334 353 36 37 261 328 1 92 213 294 325 10 353 0 38
306 304 304 302 305 306 248 341 348 194 122 241 279 267 241 205 174 204 192 186 204 221 262 258 257 339 96 9 46 24 3 353 13 348 8 19 347 341 18 347 358 355 29 26
304 302 301 296 296 286 245 236 234 160 217 232 273 276 273 167 216 229 204 158 190 234 247 271 257 345 78 64 65 63 22 99 31 2 71 45 36 26 19 15 29 33 24 17
302 303 301 275 200 239 85 82 76 51 263 275 231 254 266 183 243 198 191 170 219 218 222 253 107 59 87 266 82 86 97 295 328 353 32 54 45 42 34 28 25 23 13 12
300 291 221 134 204 131 121 56 164 181 215 227 254 241 266 43 3 302 35 3 275 261 251 356 57 233 191 82 138 158 186 240 68 350 64 79 69 48 35 32 30 29 7 10
335 334 14 330 163 229 210 211 202 170 220 210 230 210 229 10 247 232 95 251 285 287 275 174 243 285 223 162 172 177 138 163 163 96 119 99 82 64 54 43 25 20 354 22
296 290 291 273 270 238 251 219 216 200 234 185 208 182 170 202 144 98 283 176 10 269 333 231 237 196 207 162 89 73 43 57 36 78 111 104 110 109 147 126 64 351 334 13
229 204 236 216 232 238 212 216 227 217 208 154 205 160 139 45 92 90 81 45 249 327 329 247 162 193 184 157 111 80 27 37 37 11 88 121 124 128 50 81 178 8 14 46
257 225 251 213 217 231 202 251 264 230 231 100 17 126 145 161 142 156 186 212 169 287 257 246 165 45 234 144 154 127 124 121 58 29 15 57 99 83 70 49 37 14 32 14
272 241 241 232 233 279 276 255 257 275 179 110 345 32 120 117 114 287 51 205 217 201 231 227 94 75 351 217 159 139 136 35 56 49 20 38 93 107 97 84 49 43 20 357
240 234 267 287 293 293 299 309 291 291 271 140 141 148 186 171 180 179 209 163 219 244 237 164 163 176 250 166 153 142 146 177 135 56 47 34 50 82 116 110 101 75 33 9
235 237 248 265 275 278 279 284 287 257 163 180 312 184 211 208 156 197 179 201 211 203 224 207 160 167 159 172 177 177 145 127 131 200 105 34 21 89 81 79 96 91 61 23